LUCH (OLYMP) DEB, 67745

Orbit data source: Space-Track

LUCH (OLYMP) DEB, 67745 is space debris in GEO originally from a launch on Sat, 27 Sep 2014 UTC launched from the Tyuratam Missile And Space Complex (TTMTR). Debris objects in space refer to the collection of defunct objects orbiting the Earth. Examples of debris include non-operational satellites, rocket bodies, and fragments generated from explosions, collisions, or faulty payload assembly.

Loading next visibility...
Identifier
67745, 2014-058D
Orbit
GEO
Country
Flag of CISCIS
Related business
Manufacturer
Resehetnev ISS
Mission
Spacecraft
Bus & Motor
Unknown
Mass
Unknown
Launch date (UTC)
2014-09-27 (12 years ago)
Launch vehicle
Unknown
Launch site
Tyuratam Missile And Space Complex (TTMTR)
Object type
Payload
Rocket body
Debris
Shape & HBR
Unknown shape, 1.1 m
Radar Cross Section
RCS unknown

Expand to show TLE details & history
Last TLE update: 1 day ago

TLE from 1 day ago
0 LUCH (OLYMP) DEB
1 67745U 14058D   26164.58500687 -.00000241  00000-0  00000-0 0  9993
2 67745   2.1978  85.0673 1786220  19.9614 345.6631  0.98044795  1312
Epoch: 2026-06-13T14:02Z
TLE epoch observation values (Epoch: 2026-06-13T14:02:24.593Z)
Latitude
-0.00002°
Longitude
-28.15059°
Altitude
29,091.922 km
Speed
3.628 km/s
True Right ascension
05h 37m 23s
True Declination
0° 00' 00"
Sunlit
Object was in daylight at epoch
Visualization orbit readout
Latitude
Unknown
Longitude
Unknown
Altitude
Unknown
Speed
Unknown
Apparent Right ascension
Unknown
Apparent Declination
Unknown
Sunlit
N/A
Visualization observer readout
Local Sidereal Time
06:01:17
Azimuth
Unknown
Elevation
Unknown
Doppler factor
Unknown
Orbital elements
Apogee altitude
44,069.159 km
Perigee altitude
28,778.426 km
Semi-major axis
42,801.93 km
Eccentricity
0.17862
Inclination
2.1978°
RAAN
85.0673°
Arg. of periapsis
19.9614°
True anomaly
339.22947°
Mean anomaly
345.6631°
Eccentric anomaly
342.60317°
Mean motion
0.2451 °/min
Orbital period
1,468.77 mins
BSTAR
0
Loading maneuver chart data...
Computing Atmospheric mass density...
Loading historical data...
Loading historical data...
Loading historical data...
Loading historical data...
Loading historical data...
Loading historical data...
Loading historical data...
Other satellites on launch #58 in the year 2014 (2014-09-27 UTC)

Documentation

Showing up to 5 results
|